STARLINK-5480 (55664 NORAD) Tracking and Keplerian Element Data

This shows tracking and keplerian element data for the satellite.

Feedback or suggestion? Click here.




ElementValue
Catalog55664
NameSTARLINK-5480
Epoch Orbit281
Epoch Day63.25001157
Epoch Year2023
RAAN109.2435
Inclination69.9998
Eccentricity0.0003662
Argument of Perigee265.5355
Mean Anonmoly69.6083
Mean Motion15.74511097
Decay Rate-0.01048068
L11 55664U 23021AN 23063.25001157 -.01048068 00000+0 -79629-2 0 9992
L22 55664 69.9998 109.2435 0003662 265.5355 69.6083 15.74511097 2813



Live tracking and technical data element details for STARLINK-5480 (NORAD 55664). STARLINK-5480 can be tracked NOW for your location showing map with azimuth and elevation plus other details from your city location.







IsCatalogInMostPopularTable: catalog: 55664, numindb: 2
Update: records affected: 1



GetName: 55664 STARLINK-5480

Hit Count: updated at: Wed, 22 Mar 2023 16:18:38 GMT